When you browse on this site, cookies collect data to enhance your experience and personalize the content and advertising you see.
Visit our Privacy Policy to learn more. By continuing to use the site, you agree to this use of cookies and data.
  • In Hungary
  • List of Countries
  • For 7 days
  • Water Temperature
  • Weather Map
  • News
  • Weather Widgets
  • user-avatar
    Login

    Hourly Weather Klagenfurt

    Today, 22 September, Sunday

    Time Temperature Precipitation Wind Pressure Humidity
    00:00 +7°C° 0 mm 1 mps 692 mmHg 80%
    01:00 +7°C° 0 mm 1 mps 692 mmHg 81%
    02:00 +7°C° 0 mm 1 mps 691 mmHg 81%
    03:00 +7°C° 0 mm 1 mps 691 mmHg 80%
    04:00 +6°C° 0 mm 0 mps 690 mmHg 80%
    05:00 +7°C° 0 mm 1 mps 690 mmHg 78%
    06:00 +8°C° 0 mm 1 mps 691 mmHg 76%
    07:00 +9°C° 0 mm 1 mps 691 mmHg 75%
    08:00 +11°C° 0 mm 1 mps 691 mmHg 68%
    09:00 +13°C° 0 mm 1 mps 691 mmHg 62%
    10:00 +15°C° 0 mm 1 mps 691 mmHg 55%
    11:00 +16°C° 0 mm 1 mps 691 mmHg 54%
    12:00 +18°C° 0 mm 1 mps 691 mmHg 52%
    13:00 +18°C° 0 mm 2 mps 690 mmHg 51%
    14:00 +17°C° 0 mm 2 mps 690 mmHg 55%
    15:00 +17°C° 0 mm 2 mps 690 mmHg 60%
    16:00 +16°C° 0 mm 2 mps 689 mmHg 64%
    17:00 +14°C° 0 mm 2 mps 689 mmHg 72%
    18:00 +13°C° 0 mm 2 mps 689 mmHg 79%
    19:00 +11°C° 0 mm 1 mps 688 mmHg 86%
    20:00 +11°C° 0 mm 1 mps 688 mmHg 89%
    21:00 +10°C° 0 mm 1 mps 688 mmHg 91%
    22:00 +10°C° 0 mm 1 mps 688 mmHg 93%
    23:00 +10°C° 0 mm 1 mps 688 mmHg 94%

    Tomorrow, 23 September, Monday

    Time Temperature Precipitation Wind Pressure Humidity
    00:00 +10°C° 0 mm 1 mps 688 mmHg 95%
    01:00 +10°C° 0 mm 1 mps 688 mmHg 96%
    02:00 +10°C° 0 mm 1 mps 687 mmHg 96%
    03:00 +10°C° 0 mm 1 mps 687 mmHg 96%
    04:00 +10°C° 0 mm 1 mps 687 mmHg 96%
    05:00 +11°C° 0 mm 1 mps 687 mmHg 95%
    06:00 +12°C° 0 mm 1 mps 687 mmHg 94%
    07:00 +12°C° 0 mm 1 mps 687 mmHg 93%
    08:00 +14°C° 0 mm 1 mps 687 mmHg 86%
    09:00 +16°C° 0 mm 1 mps 688 mmHg 79%
    10:00 +20°C° 0 mm 1 mps 689 mmHg 72%
    11:00 +19°C° 0.7 mm 1 mps 688 mmHg 76%
    12:00 +17°C° 0.7 mm 0 mps 688 mmHg 80%
    13:00 +17°C° 0.7 mm 0 mps 688 mmHg 84%
    14:00 +16°C° 1.3 mm 0 mps 688 mmHg 87%
    15:00 +16°C° 1.3 mm 0 mps 688 mmHg 90%
    16:00 +15°C° 1.3 mm 0 mps 688 mmHg 93%
    17:00 +15°C° 3.3 mm 1 mps 688 mmHg 94%
    18:00 +14°C° 3.3 mm 1 mps 688 mmHg 96%
    19:00 +13°C° 3.3 mm 2 mps 688 mmHg 97%
    20:00 +12°C° 4.4 mm 2 mps 688 mmHg 97%
    21:00 +12°C° 4.4 mm 2 mps 688 mmHg 97%
    22:00 +10°C° 4.4 mm 2 mps 689 mmHg 97%
    23:00 +10°C° 0.5 mm 2 mps 689 mmHg 97%

    Day after tomorrow, 24 September, Tuesday

    Time Temperature Precipitation Wind Pressure Humidity
    00:00 +10°C° 0.5 mm 1 mps 688 mmHg 96%
    01:00 +10°C° 0.5 mm 1 mps 688 mmHg 96%
    02:00 +10°C° 0 mm 1 mps 688 mmHg 95%
    03:00 +10°C° 0 mm 1 mps 688 mmHg 94%
    04:00 +10°C° 0 mm 1 mps 688 mmHg 93%
    05:00 +10°C° 0 mm 1 mps 688 mmHg 93%
    06:00 +11°C° 0 mm 1 mps 688 mmHg 92%
    07:00 +10°C° 0 mm 0 mps 688 mmHg 92%
    08:00 +12°C° 0 mm 0 mps 689 mmHg 84%
    09:00 +14°C° 0 mm 0 mps 689 mmHg 77%
    10:00 +16°C° 0 mm 1 mps 689 mmHg 70%
    11:00 +18°C° 0 mm 1 mps 689 mmHg 67%
    12:00 +19°C° 0 mm 1 mps 689 mmHg 63%
    13:00 +20°C° 0 mm 1 mps 689 mmHg 60%
    14:00 +19°C° 0.1 mm 1 mps 688 mmHg 64%
    15:00 +19°C° 0.1 mm 1 mps 688 mmHg 68%
    16:00 +18°C° 0.1 mm 1 mps 687 mmHg 72%
    17:00 +15°C° 0 mm 1 mps 687 mmHg 79%
    18:00 +13°C° 0 mm 1 mps 686 mmHg 86%
    19:00 +12°C° 0 mm 1 mps 686 mmHg 93%
    20:00 +11°C° 0 mm 1 mps 686 mmHg 93%
    21:00 +11°C° 0 mm 1 mps 686 mmHg 93%
    22:00 +11°C° 0 mm 1 mps 686 mmHg 92%
    23:00 +10°C° 0 mm 1 mps 686 mmHg 93%

    25 September, Wednesday

    Time Temperature Precipitation Wind Pressure Humidity
    00:00 +10°C° 0 mm 1 mps 686 mmHg 94%
    01:00 +10°C° 0 mm 1 mps 685 mmHg 94%
    02:00 +10°C° 0 mm 1 mps 685 mmHg 94%
    03:00 +8°C° 0 mm 0 mps 685 mmHg 94%
    04:00 +8°C° 0 mm 0 mps 685 mmHg 93%
    05:00 +9°C° 0 mm 0 mps 685 mmHg 92%
    06:00 +9°C° 0 mm 0 mps 685 mmHg 90%
    07:00 +10°C° 0 mm 0 mps 685 mmHg 89%
    08:00 +12°C° 0 mm 0 mps 686 mmHg 82%
    09:00 +14°C° 0 mm 0 mps 686 mmHg 74%
    10:00 +17°C° 0 mm 0 mps 687 mmHg 67%
    11:00 +16°C° 0.3 mm 0 mps 687 mmHg 69%
    12:00 +18°C° 0.3 mm 1 mps 687 mmHg 71%
    13:00 +18°C° 0.3 mm 1 mps 686 mmHg 73%
    14:00 +16°C° 1 mm 1 mps 686 mmHg 79%
    15:00 +15°C° 1 mm 1 mps 686 mmHg 85%
    16:00 +15°C° 1 mm 1 mps 686 mmHg 91%
    17:00 +13°C° 1.4 mm 1 mps 686 mmHg 93%
    18:00 +12°C° 1.4 mm 1 mps 686 mmHg 94%
    19:00 +11°C° 1.4 mm 1 mps 686 mmHg 96%
    20:00 +10°C° 0.1 mm 1 mps 687 mmHg 95%
    21:00 +10°C° 0.1 mm 1 mps 687 mmHg 95%
    22:00 +9°C° 0.1 mm 1 mps 687 mmHg 94%
    23:00 +9°C° 0 mm 1 mps 687 mmHg 94%

    26 September, Thursday

    Time Temperature Precipitation Wind Pressure Humidity
    00:00 +9°C° 0 mm 1 mps 687 mmHg 93%
    01:00 +8°C° 0 mm 1 mps 687 mmHg 93%
    02:00 +8°C° 0 mm 1 mps 687 mmHg 93%
    03:00 +8°C° 0 mm 1 mps 688 mmHg 92%
    04:00 +7°C° 0 mm 1 mps 688 mmHg 92%
    05:00 +8°C° 0 mm 1 mps 688 mmHg 91%
    06:00 +8°C° 0 mm 1 mps 688 mmHg 91%
    07:00 +7°C° 0 mm 0 mps 689 mmHg 90%
    08:00 +10°C° 0 mm 0 mps 689 mmHg 83%
    09:00 +12°C° 0 mm 0 mps 690 mmHg 77%
    10:00 +14°C° 0 mm 0 mps 691 mmHg 70%
    11:00 +16°C° 0 mm 1 mps 691 mmHg 64%
    12:00 +18°C° 0 mm 1 mps 691 mmHg 58%
    13:00 +19°C° 0 mm 1 mps 691 mmHg 53%
    14:00 +19°C° 0 mm 1 mps 690 mmHg 55%
    15:00 +19°C° 0 mm 1 mps 690 mmHg 57%
    16:00 +18°C° 0 mm 1 mps 690 mmHg 59%
    17:00 +15°C° 0 mm 1 mps 690 mmHg 68%
    18:00 +13°C° 0 mm 1 mps 690 mmHg 76%
    19:00 +11°C° 0 mm 1 mps 689 mmHg 85%
    20:00 +11°C° 0 mm 1 mps 690 mmHg 85%
    21:00 +10°C° 0 mm 1 mps 690 mmHg 86%
    22:00 +10°C° 0 mm 1 mps 690 mmHg 86%
    23:00 +10°C° 0 mm 1 mps 690 mmHg 86%

    27 September, Friday

    Time Temperature Precipitation Wind Pressure Humidity
    00:00 +9°C° 0 mm 1 mps 690 mmHg 87%
    01:00 +9°C° 0 mm 1 mps 690 mmHg 87%
    02:00 +8°C° 0 mm 0 mps 690 mmHg 87%
    03:00 +8°C° 0 mm 0 mps 689 mmHg 87%
    04:00 +8°C° 0 mm 0 mps 689 mmHg 86%
    05:00 +8°C° 0 mm 0 mps 689 mmHg 84%
    06:00 +9°C° 0 mm 0 mps 689 mmHg 82%
    07:00 +9°C° 0 mm 0 mps 689 mmHg 80%
    08:00 +12°C° 0 mm 0 mps 690 mmHg 72%
    09:00 +14°C° 0 mm 0 mps 691 mmHg 63%
    10:00 +17°C° 0 mm 0 mps 691 mmHg 55%
    11:00 +20°C° 0 mm 1 mps 691 mmHg 53%
    12:00 +20°C° 0 mm 1 mps 691 mmHg 50%
    13:00 +21°C° 0 mm 1 mps 691 mmHg 48%
    14:00 +20°C° 0 mm 1 mps 690 mmHg 53%
    15:00 +20°C° 0 mm 1 mps 690 mmHg 57%
    16:00 +19°C° 0 mm 1 mps 690 mmHg 62%
    17:00 +16°C° 0 mm 1 mps 690 mmHg 70%
    18:00 +14°C° 0 mm 1 mps 689 mmHg 78%
    19:00 +12°C° 0 mm 1 mps 689 mmHg 86%
    20:00 +12°C° 0 mm 1 mps 689 mmHg 87%
    21:00 +11°C° 0 mm 1 mps 689 mmHg 88%
    22:00 +11°C° 0 mm 1 mps 689 mmHg 89%
    23:00 +10°C° 0 mm 1 mps 689 mmHg 90%
    Show more